| time (UTC) | temp C | wind direction | speed KPH | gust KPH | rain 1hr cm | rain 24hr cm | rain mn cm | humidity % | barometer mb |
| 20260508013704 | 20 | 206 | 8.0 | 11.3 | 0.00 | 0.00 | 0.00 | 67 | 1011.6 |
| 20260508013201 | 20 | 188 | 6.4 | 12.9 | 0.00 | 0.00 | 0.00 | 67 | 1011.6 |
| 20260508012659 | 21 | 218 | 3.2 | 11.3 | 0.00 | 0.00 | 0.00 | 65 | 1011.6 |
| 20260508012155 | 20 | 157 | 9.7 | 12.9 | 0.00 | 0.00 | 0.00 | 66 | 1011.9 |
| 20260508011654 | 21 | 232 | 6.4 | 12.9 | 0.00 | 0.00 | 0.00 | 65 | 1011.9 |
| 20260508011150 | 21 | 200 | 6.4 | 9.7 | 0.00 | 0.00 | 0.00 | 64 | 1011.6 |
| 20260508010646 | 21 | 189 | 8.0 | 12.9 | 0.00 | 0.00 | 0.00 | 63 | 1011.6 |
| 20260508010139 | 21 | 237 | 9.7 | 12.9 | 0.00 | 0.00 | 0.00 | 62 | 1011.6 |
| 20260508005636 | 21 | 209 | 8.0 | 12.9 | 0.00 | 0.00 | 0.00 | 63 | 1011.6 |
| 20260508005133 | 21 | 216 | 6.4 | 11.3 | 0.00 | 0.00 | 0.00 | 64 | 1011.6 |
| 20260508004628 | 21 | 183 | 6.4 | 9.7 | 0.00 | 0.00 | 0.00 | 63 | 1011.2 |
| 20260508004125 | 21 | 207 | 4.8 | 11.3 | 0.00 | 0.00 | 0.00 | 63 | 1011.6 |
| 20260508003621 | 22 | 205 | 4.8 | 11.3 | 0.00 | 0.00 | 0.00 | 62 | 1011.6 |
| 20260508003120 | 22 | 213 | 4.8 | 9.7 | 0.00 | 0.00 | 0.00 | 60 | 1011.6 |
| 20260508002616 | 21 | 182 | 8.0 | 11.3 | 0.00 | 0.00 | 0.00 | 61 | 1011.2 |
| 20260508002114 | 22 | 230 | 4.8 | 14.5 | 0.00 | 0.00 | 0.00 | 61 | 1011.6 |
| 20260508001608 | 21 | 198 | 9.7 | 12.9 | 0.00 | 0.00 | 0.00 | 61 | 1011.2 |
| 20260508001105 | 22 | 225 | 12.9 | 16.1 | 0.00 | 0.00 | 0.00 | 61 | 1011.6 |
| 20260508000601 | 22 | 212 | 4.8 | 12.9 | 0.00 | 0.00 | 0.00 | 60 | 1011.6 |
| 20260508000058 | 22 | 208 | 3.2 | 9.7 | 0.00 | 0.00 | 0.00 | 60 | 1011.2 |
| 20260507235555 | 22 | 216 | 6.4 | 14.5 | 0.00 | 0.00 | 0.00 | 62 | 1011.6 |
| 20260507235052 | 22 | 254 | 8.0 | 17.7 | 0.00 | 0.00 | 0.00 | 61 | 1011.6 |
| 20260507234549 | 22 | 228 | 6.4 | 11.3 | 0.00 | 0.00 | 0.00 | 59 | 1011.6 |
| 20260507234045 | 22 | 234 | 6.4 | 11.3 | 0.00 | 0.00 | 0.00 | 60 | 1011.6 |
| 20260507233542 | 22 | 222 | 6.4 | 9.7 | 0.00 | 0.00 | 0.00 | 60 | 1011.6 |
| 20260507233041 | 22 | 227 | 6.4 | 9.7 | 0.00 | 0.00 | 0.00 | 60 | 1011.6 |
| 20260507232536 | 22 | 219 | 4.8 | 12.9 | 0.00 | 0.00 | 0.00 | 59 | 1011.6 |
| 20260507232034 | 22 | 184 | 9.7 | 16.1 | 0.00 | 0.00 | 0.00 | 59 | 1011.6 |
| 20260507231530 | 22 | 217 | 12.9 | 17.7 | 0.00 | 0.00 | 0.00 | 58 | 1011.6 |
| 20260507231028 | 23 | 233 | 9.7 | 14.5 | 0.00 | 0.00 | 0.00 | 57 | 1011.2 |
| 20260507230524 | 23 | 223 | 6.4 | 11.3 | 0.00 | 0.00 | 0.00 | 58 | 1011.2 |
| 20260507230021 | 23 | 252 | 4.8 | 12.9 | 0.00 | 0.00 | 0.00 | 57 | 1011.6 |
| 20260507225516 | 23 | 195 | 6.4 | 16.1 | 0.00 | 0.00 | 0.00 | 57 | 1011.6 |
| 20260507225012 | 22 | 209 | 6.4 | 12.9 | 0.00 | 0.00 | 0.00 | 57 | 1011.6 |
| 20260507224508 | 23 | 202 | 6.4 | 12.9 | 0.00 | 0.00 | 0.00 | 56 | 1011.6 |
| 20260507224005 | 23 | 210 | 11.3 | 14.5 | 0.00 | 0.00 | 0.00 | 55 | 1011.9 |
| 20260507223501 | 23 | 234 | 9.7 | 16.1 | 0.00 | 0.00 | 0.00 | 57 | 1011.9 |
| 20260507222958 | 22 | 221 | 8.0 | 14.5 | 0.00 | 0.00 | 0.00 | 57 | 1011.9 |
| 20260507222455 | 23 | 204 | 9.7 | 14.5 | 0.00 | 0.00 | 0.00 | 56 | 1011.6 |
| 20260507221951 | 22 | 178 | 9.7 | 16.1 | 0.00 | 0.00 | 0.00 | 58 | 1011.9 |
| 20260507221448 | 22 | 233 | 6.4 | 9.7 | 0.00 | 0.00 | 0.00 | 59 | 1011.6 |
| 20260507220945 | 23 | 164 | 4.8 | 16.1 | 0.00 | 0.00 | 0.00 | 58 | 1011.9 |
| 20260507220443 | 23 | 190 | 11.3 | 16.1 | 0.00 | 0.00 | 0.00 | 57 | 1012.3 |
| 20260507215939 | 23 | 175 | 8.0 | 11.3 | 0.00 | 0.00 | 0.00 | 58 | 1012.3 |
| 20260507215435 | 23 | 186 | 8.0 | 11.3 | 0.00 | 0.00 | 0.00 | 57 | 1012.3 |
| 20260507214933 | 22 | 213 | 11.3 | 16.1 | 0.00 | 0.00 | 0.00 | 59 | 1012.3 |
| 20260507214431 | 23 | 210 | 8.0 | 16.1 | 0.00 | 0.00 | 0.00 | 58 | 1012.3 |
| 20260507213926 | 23 | 236 | 12.9 | 14.5 | 0.00 | 0.00 | 0.00 | 56 | 1012.6 |
| 20260507213423 | 23 | 186 | 11.3 | 14.5 | 0.00 | 0.00 | 0.00 | 57 | 1012.3 |
| 20260507212920 | 23 | 211 | 11.3 | 16.1 | 0.00 | 0.00 | 0.00 | 57 | 1012.6 |
| 20260507212415 | 23 | 183 | 1.6 | 12.9 | 0.00 | 0.00 | 0.00 | 55 | 1012.6 |
| 20260507211912 | 23 | 196 | 1.6 | 12.9 | 0.00 | 0.00 | 0.00 | 55 | 1012.6 |
| 20260507211409 | 23 | 216 | 8.0 | 12.9 | 0.00 | 0.00 | 0.00 | 56 | 1012.6 |
| 20260507210906 | 23 | 216 | 6.4 | 16.1 | 0.00 | 0.00 | 0.00 | 56 | 1012.6 |
| 20260507210403 | 23 | 207 | 6.4 | 11.3 | 0.00 | 0.00 | 0.00 | 56 | 1012.6 |
| 20260507205859 | 23 | 214 | 3.2 | 14.5 | 0.00 | 0.00 | 0.00 | 57 | 1012.6 |
| 20260507205356 | 23 | 233 | 8.0 | 12.9 | 0.00 | 0.00 | 0.00 | 55 | 1012.6 |
| 20260507204852 | 23 | 244 | 8.0 | 11.3 | 0.00 | 0.00 | 0.00 | 56 | 1012.6 |
| 20260507204349 | 23 | 252 | 6.4 | 12.9 | 0.00 | 0.00 | 0.00 | 58 | 1013.0 |
| 20260507203847 | 23 | 168 | 4.8 | 12.9 | 0.00 | 0.00 | 0.00 | 59 | 1012.6 |
| 20260507203345 | 23 | 179 | 1.6 | 12.9 | 0.00 | 0.00 | 0.00 | 57 | 1013.0 |
| 20260507202841 | 23 | 212 | 11.3 | 14.5 | 0.00 | 0.00 | 0.00 | 60 | 1013.0 |
| 20260507202337 | 23 | 216 | 6.4 | 16.1 | 0.00 | 0.00 | 0.00 | 58 | 1013.0 |
| 20260507201833 | 22 | 197 | 1.6 | 12.9 | 0.00 | 0.00 | 0.00 | 60 | 1012.6 |
| 20260507201328 | 22 | 200 | 3.2 | 14.5 | 0.00 | 0.00 | 0.00 | 60 | 1013.0 |
| 20260507200825 | 23 | 207 | 8.0 | 16.1 | 0.00 | 0.00 | 0.00 | 60 | 1012.6 |
| 20260507200321 | 24 | 204 | 4.8 | 12.9 | 0.00 | 0.00 | 0.00 | 55 | 1013.0 |
| 20260507195817 | 23 | 261 | 6.4 | 11.3 | 0.00 | 0.00 | 0.00 | 58 | 1013.0 |
| 20260507195315 | 22 | 202 | 11.3 | 14.5 | 0.00 | 0.00 | 0.00 | 60 | 1013.0 |
| 20260507194812 | 23 | 209 | 4.8 | 9.7 | 0.00 | 0.00 | 0.00 | 56 | 1013.4 |
| 20260507194308 | 23 | 232 | 6.4 | 11.3 | 0.00 | 0.00 | 0.00 | 58 | 1013.0 |
| 20260507193805 | 23 | 225 | 4.8 | 12.9 | 0.00 | 0.00 | 0.00 | 57 | 1013.0 |
| 20260507193302 | 23 | 167 | 4.8 | 17.7 | 0.00 | 0.00 | 0.00 | 58 | 1013.0 |
| 20260507192757 | 23 | 172 | 4.8 | 14.5 | 0.00 | 0.00 | 0.00 | 59 | 1013.0 |
| 20260507192255 | 23 | 224 | 4.8 | 14.5 | 0.00 | 0.00 | 0.00 | 59 | 1013.4 |
| 20260507191750 | 22 | 227 | 4.8 | 11.3 | 0.00 | 0.00 | 0.00 | 60 | 1013.4 |
| 20260507191247 | 23 | 226 | 8.0 | 11.3 | 0.00 | 0.00 | 0.00 | 57 | 1013.4 |
| 20260507190744 | 23 | 181 | 4.8 | 11.3 | 0.00 | 0.00 | 0.00 | 57 | 1013.4 |
| 20260507190243 | 23 | 239 | 1.6 | 8.0 | 0.00 | 0.00 | 0.00 | 59 | 1013.4 |
| 20260507185741 | 22 | 211 | 1.6 | 12.9 | 0.00 | 0.00 | 0.00 | 60 | 1013.4 |
| 20260507185237 | 22 | 112 | 4.8 | 9.7 | 0.00 | 0.00 | 0.00 | 58 | 1013.7 |
| 20260507184735 | 22 | 251 | 6.4 | 9.7 | 0.00 | 0.00 | 0.00 | 58 | 1013.4 |
| 20260507184233 | 23 | 224 | 12.9 | 16.1 | 0.00 | 0.00 | 0.00 | 60 | 1013.7 |
| 20260507183729 | 23 | 179 | 6.4 | 8.0 | 0.00 | 0.00 | 0.00 | 58 | 1014.0 |
| 20260507183226 | 22 | 242 | 9.7 | 11.3 | 0.00 | 0.00 | 0.00 | 60 | 1013.7 |
| 20260507182724 | 22 | 197 | 9.7 | 12.9 | 0.00 | 0.00 | 0.00 | 60 | 1013.7 |
| 20260507182218 | 22 | 246 | 6.4 | 11.3 | 0.00 | 0.00 | 0.00 | 59 | 1013.7 |
| 20260507181716 | 22 | 172 | 6.4 | 11.3 | 0.00 | 0.00 | 0.00 | 58 | 1014.0 |
| 20260507181212 | 22 | 200 | 8.0 | 9.7 | 0.00 | 0.00 | 0.00 | 57 | 1014.0 |
| 20260507180710 | 21 | 216 | 3.2 | 3.2 | 0.00 | 0.00 | 0.00 | 60 | 1014.0 |
| 20260507180206 | 22 | 258 | 4.8 | 4.8 | 0.00 | 0.00 | 0.00 | 57 | 1014.0 |
| 20260507175701 | 22 | 174 | 4.8 | 8.0 | 0.00 | 0.00 | 0.00 | 58 | 1013.7 |
| 20260507175159 | 21 | 169 | 3.2 | 11.3 | 0.00 | 0.00 | 0.00 | 60 | 1014.0 |
| 20260507174656 | 21 | 263 | 6.4 | 11.3 | 0.00 | 0.00 | 0.00 | 61 | 1014.0 |
| 20260507174154 | 21 | 200 | 1.6 | 3.2 | 0.00 | 0.00 | 0.00 | 61 | 1014.0 |
| 20260507173651 | 21 | 243 | 4.8 | 8.0 | 0.00 | 0.00 | 0.00 | 61 | 1014.0 |
| 20260507173147 | 21 | 251 | 6.4 | 9.7 | 0.00 | 0.00 | 0.00 | 63 | 1014.4 |
| 20260507172643 | 21 | 290 | 1.6 | 1.6 | 0.00 | 0.00 | 0.00 | 62 | 1014.0 |
| 20260507172136 | 21 | 206 | 4.8 | 9.7 | 0.00 | 0.00 | 0.00 | 62 | 1014.0 |
| 20260507171635 | 20 | 139 | 4.8 | 9.7 | 0.00 | 0.00 | 0.00 | 65 | 1014.4 |
| 20260507171133 | 20 | 242 | 1.6 | 9.7 | 0.00 | 0.00 | 0.00 | 64 | 1014.4 |
| 20260507170630 | 20 | 182 | 3.2 | 8.0 | 0.00 | 0.00 | 0.00 | 64 | 1014.4 |
| 20260507170127 | 21 | 165 | 0.0 | 1.6 | 0.00 | 0.00 | 0.00 | 63 | 1014.4 |
| 20260507165623 | 21 | 228 | 1.6 | 3.2 | 0.00 | 0.00 | 0.00 | 65 | 1014.0 |
| 20260507165119 | 20 | 170 | 1.6 | 4.8 | 0.00 | 0.00 | 0.00 | 66 | 1014.4 |
| 20260507164615 | 20 | 234 | 6.4 | 8.0 | 0.00 | 0.00 | 0.00 | 67 | 1014.4 |
| 20260507164112 | 19 | 144 | 3.2 | 4.8 | 0.00 | 0.00 | 0.00 | 68 | 1014.4 |
| 20260507163609 | 19 | 237 | 6.4 | 8.0 | 0.00 | 0.00 | 0.00 | 70 | 1014.0 |
| 20260507163107 | 19 | 214 | 4.8 | 8.0 | 0.00 | 0.00 | 0.00 | 69 | 1014.4 |
| 20260507162602 | 18 | 183 | 4.8 | 9.7 | 0.00 | 0.00 | 0.00 | 70 | 1014.7 |
| 20260507162059 | 18 | 200 | 4.8 | 8.0 | 0.00 | 0.00 | 0.00 | 70 | 1014.7 |
| 20260507161555 | 18 | 156 | 3.2 | 8.0 | 0.00 | 0.00 | 0.00 | 71 | 1014.4 |
| 20260507161052 | 18 | 158 | 6.4 | 8.0 | 0.00 | 0.00 | 0.00 | 71 | 1014.4 |
| 20260507160548 | 17 | 327 | 1.6 | 3.2 | 0.00 | 0.00 | 0.00 | 73 | 1014.4 |
| 20260507160045 | 18 | 263 | 3.2 | 4.8 | 0.00 | 0.00 | 0.00 | 73 | 1014.4 |
| 20260507155540 | 18 | 223 | 4.8 | 4.8 | 0.00 | 0.00 | 0.00 | 71 | 1014.4 |
| 20260507155037 | 18 | 125 | 0.0 | 1.6 | 0.00 | 0.00 | 0.00 | 73 | 1014.7 |
| 20260507154534 | 17 | 195 | 0.0 | 3.2 | 0.00 | 0.00 | 0.00 | 75 | 1014.7 |
| 20260507154031 | 17 | 174 | 3.2 | 4.8 | 0.00 | 0.00 | 0.00 | 73 | 1014.4 |
| 20260507153528 | 17 | 152 | 4.8 | 8.0 | 0.00 | 0.00 | 0.00 | 76 | 1014.7 |
| 20260507153024 | 17 | 180 | 0.0 | 1.6 | 0.00 | 0.00 | 0.00 | 74 | 1014.7 |
| 20260507152520 | 17 | 101 | 3.2 | 3.2 | 0.00 | 0.00 | 0.00 | 75 | 1014.7 |
| 20260507152017 | 17 | 157 | 1.6 | 4.8 | 0.00 | 0.00 | 0.00 | 76 | 1014.7 |
| 20260507151513 | 17 | 196 | 3.2 | 8.0 | 0.00 | 0.00 | 0.00 | 76 | 1015.1 |
| 20260507151010 | 17 | 81 | 1.6 | 4.8 | 0.00 | 0.00 | 0.00 | 77 | 1014.7 |
| 20260507150507 | 17 | 150 | 4.8 | 4.8 | 0.00 | 0.00 | 0.00 | 76 | 1014.7 |
| 20260507150004 | 17 | 190 | 1.6 | 3.2 | 0.00 | 0.00 | 0.00 | 76 | 1014.7 |
| 20260507145459 | 16 | 104 | 3.2 | 4.8 | 0.00 | 0.00 | 0.00 | 77 | 1015.1 |
| 20260507144956 | 16 | 209 | 0.0 | 1.6 | 0.00 | 0.00 | 0.00 | 79 | 1015.1 |
| 20260507144453 | 16 | 196 | 1.6 | 1.6 | 0.00 | 0.00 | 0.00 | 77 | 1014.7 |
| 20260507143950 | 16 | 133 | 1.6 | 1.6 | 0.00 | 0.00 | 0.00 | 78 | 1014.7 |
| 20260507143448 | 16 | 142 | 3.2 | 3.2 | 0.00 | 0.00 | 0.00 | 79 | 1014.7 |
| 20260507142944 | 16 | 148 | 3.2 | 3.2 | 0.00 | 0.00 | 0.00 | 80 | 1014.4 |
| 20260507142440 | 15 | 165 | 0.0 | 3.2 | 0.00 | 0.00 | 0.00 | 80 | 1014.4 |
| 20260507141937 | 16 | 166 | 3.2 | 3.2 | 0.00 | 0.00 | 0.00 | 79 | 1014.4 |
| 20260507141433 | 15 | 148 | 0.0 | 1.6 | 0.00 | 0.00 | 0.00 | 80 | 1014.4 |
| 20260507140930 | 16 | 108 | 0.0 | 0.0 | 0.00 | 0.00 | 0.00 | 78 | 1014.4 |
| 20260507140426 | 15 | 108 | 0.0 | 0.0 | 0.00 | 0.00 | 0.00 | 79 | 1014.4 |
| 20260507135925 | 15 | 108 | 0.0 | 1.6 | 0.00 | 0.00 | 0.00 | 81 | 1014.4 |
| 20260507135421 | 15 | 109 | 0.0 | 1.6 | 0.00 | 0.00 | 0.00 | 81 | 1014.4 |
| 20260507134918 | 15 | 109 | 0.0 | 0.0 | 0.00 | 0.00 | 0.00 | 81 | 1014.4 |
| 20260507134415 | 14 | 109 | 0.0 | 0.0 | 0.00 | 0.00 | 0.00 | 83 | 1014.0 |
| 20260507133910 | 13 | 109 | 0.0 | 0.0 | 0.00 | 0.00 | 0.00 | 84 | 1014.0 |
| 20260507133406 | 13 | 109 | 0.0 | 0.0 | 0.00 | 0.00 | 0.00 | 86 | 1014.0 |
| 20260507132906 | 12 | 109 | 0.0 | 0.0 | 0.00 | 0.00 | 0.00 | 87 | 1014.0 |
| 20260507132401 | 12 | 109 | 0.0 | 0.0 | 0.00 | 0.00 | 0.00 | 87 | 1014.0 |
| 20260507131858 | 12 | 108 | 0.0 | 0.0 | 0.00 | 0.00 | 0.00 | 88 | 1014.0 |
| 20260507131355 | 12 | 108 | 0.0 | 0.0 | 0.00 | 0.00 | 0.00 | 88 | 1014.0 |
| 20260507130852 | 12 | 108 | 0.0 | 0.0 | 0.00 | 0.00 | 0.00 | 88 | 1013.7 |
| 20260507130349 | 12 | 108 | 0.0 | 0.0 | 0.00 | 0.00 | 0.00 | 88 | 1014.0 |
| 20260507125848 | 12 | 108 | 0.0 | 0.0 | 0.00 | 0.00 | 0.00 | 88 | 1013.7 |
| 20260507125345 | 12 | 108 | 0.0 | 0.0 | 0.00 | 0.00 | 0.00 | 88 | 1013.7 |
| 20260507124843 | 12 | 108 | 0.0 | 0.0 | 0.00 | 0.00 | 0.00 | 88 | 1013.7 |
| 20260507124338 | 12 | 108 | 0.0 | 0.0 | 0.00 | 0.00 | 0.00 | 88 | 1013.7 |
| 20260507123837 | 12 | 108 | 0.0 | 0.0 | 0.00 | 0.00 | 0.00 | 88 | 1013.7 |
| 20260507123334 | 12 | 108 | 0.0 | 0.0 | 0.00 | 0.00 | 0.00 | 88 | 1013.7 |
| 20260507122830 | 12 | 108 | 0.0 | 0.0 | 0.00 | 0.00 | 0.00 | 88 | 1013.7 |
| 20260507122325 | 12 | 108 | 0.0 | 0.0 | 0.00 | 0.00 | 0.00 | 88 | 1013.7 |
| 20260507121823 | 12 | 108 | 0.0 | 0.0 | 0.00 | 0.00 | 0.00 | 88 | 1013.7 |
| 20260507121318 | 13 | 108 | 0.0 | 0.0 | 0.00 | 0.00 | 0.00 | 87 | 1013.7 |
| 20260507120814 | 13 | 108 | 0.0 | 0.0 | 0.00 | 0.00 | 0.00 | 87 | 1013.7 |
| 20260507120311 | 13 | 108 | 0.0 | 0.0 | 0.00 | 0.00 | 0.00 | 86 | 1013.7 |
| 20260507115807 | 13 | 108 | 0.0 | 0.0 | 0.00 | 0.00 | 0.00 | 86 | 1013.7 |
| 20260507115306 | 13 | 108 | 0.0 | 1.6 | 0.00 | 0.00 | 0.00 | 86 | 1013.7 |
| 20260507114759 | 13 | 109 | 0.0 | 0.0 | 0.00 | 0.00 | 0.00 | 86 | 1013.7 |
| 20260507114256 | 13 | 109 | 0.0 | 0.0 | 0.00 | 0.00 | 0.00 | 86 | 1013.7 |
| 20260507113753 | 13 | 109 | 0.0 | 1.6 | 0.00 | 0.00 | 0.00 | 87 | 1013.7 |
| 20260507113244 | 13 | 109 | 0.0 | 0.0 | 0.00 | 0.00 | 0.00 | 87 | 1013.7 |
| 20260507112742 | 12 | 109 | 0.0 | 0.0 | 0.00 | 0.00 | 0.00 | 87 | 1014.0 |
| 20260507112238 | 13 | 109 | 0.0 | 0.0 | 0.00 | 0.00 | 0.00 | 86 | 1014.0 |
| 20260507111737 | 13 | 109 | 0.0 | 0.0 | 0.00 | 0.00 | 0.00 | 86 | 1014.0 |
| 20260507111233 | 13 | 109 | 0.0 | 0.0 | 0.00 | 0.00 | 0.00 | 85 | 1014.0 |
| 20260507110729 | 13 | 109 | 0.0 | 0.0 | 0.00 | 0.00 | 0.00 | 85 | 1013.7 |
| 20260507110226 | 13 | 109 | 0.0 | 0.0 | 0.00 | 0.00 | 0.00 | 85 | 1014.0 |
| 20260507105722 | 13 | 109 | 0.0 | 0.0 | 0.00 | 0.00 | 0.00 | 85 | 1013.7 |
| 20260507105219 | 13 | 109 | 0.0 | 0.0 | 0.00 | 0.00 | 0.00 | 85 | 1014.0 |
| 20260507104716 | 13 | 109 | 0.0 | 0.0 | 0.00 | 0.00 | 0.00 | 83 | 1013.7 |
| 20260507104213 | 13 | 109 | 0.0 | 0.0 | 0.00 | 0.00 | 0.00 | 83 | 1013.7 |
| 20260507103708 | 13 | 109 | 0.0 | 1.6 | 0.00 | 0.00 | 0.00 | 83 | 1014.0 |
| 20260507103205 | 13 | 109 | 1.6 | 1.6 | 0.00 | 0.00 | 0.00 | 83 | 1014.0 |
| 20260507102701 | 13 | 109 | 0.0 | 0.0 | 0.00 | 0.00 | 0.00 | 83 | 1014.0 |
| 20260507102158 | 13 | 109 | 0.0 | 0.0 | 0.00 | 0.00 | 0.00 | 83 | 1014.0 |
| 20260507101654 | 13 | 109 | 0.0 | 0.0 | 0.00 | 0.00 | 0.00 | 83 | 1014.0 |
| 20260507101149 | 14 | 109 | 0.0 | 0.0 | 0.00 | 0.00 | 0.00 | 83 | 1014.0 |
| 20260507100647 | 14 | 109 | 0.0 | 0.0 | 0.00 | 0.00 | 0.00 | 83 | 1014.0 |
| 20260507100145 | 14 | 109 | 0.0 | 0.0 | 0.00 | 0.00 | 0.00 | 83 | 1014.4 |
| 20260507095643 | 14 | 109 | 0.0 | 0.0 | 0.00 | 0.00 | 0.00 | 82 | 1014.4 |
| 20260507095139 | 13 | 109 | 0.0 | 0.0 | 0.00 | 0.00 | 0.00 | 83 | 1014.0 |
| 20260507094636 | 14 | 109 | 0.0 | 0.0 | 0.00 | 0.00 | 0.00 | 83 | 1014.4 |
| 20260507094132 | 14 | 109 | 0.0 | 0.0 | 0.00 | 0.00 | 0.00 | 83 | 1014.0 |
| 20260507093630 | 14 | 109 | 0.0 | 0.0 | 0.00 | 0.00 | 0.00 | 83 | 1014.0 |
| 20260507093129 | 14 | 109 | 0.0 | 0.0 | 0.00 | 0.00 | 0.00 | 83 | 1014.0 |
| 20260507092625 | 14 | 109 | 0.0 | 0.0 | 0.00 | 0.00 | 0.00 | 83 | 1014.4 |
| 20260507092121 | 13 | 109 | 0.0 | 0.0 | 0.00 | 0.00 | 0.00 | 84 | 1014.4 |
| 20260507091618 | 13 | 109 | 0.0 | 0.0 | 0.00 | 0.00 | 0.00 | 83 | 1014.4 |
| 20260507091108 | 14 | 109 | 0.0 | 0.0 | 0.00 | 0.00 | 0.00 | 83 | 1014.4 |
| 20260507090604 | 14 | 109 | 0.0 | 0.0 | 0.00 | 0.00 | 0.00 | 82 | 1014.4 |
| 20260507085559 | 15 | 108 | 0.0 | 0.0 | 0.00 | 0.00 | 0.00 | 80 | 1014.7 |
| 20260507085055 | 15 | 108 | 0.0 | 0.0 | 0.00 | 0.00 | 0.00 | 80 | 1014.7 |
| 20260507084552 | 15 | 108 | 0.0 | 0.0 | 0.00 | 0.00 | 0.00 | 80 | 1014.7 |
| 20260507084049 | 15 | 108 | 0.0 | 0.0 | 0.00 | 0.00 | 0.00 | 80 | 1015.1 |
| 20260507083545 | 15 | 108 | 0.0 | 0.0 | 0.00 | 0.00 | 0.00 | 79 | 1014.7 |
| 20260507083042 | 15 | 108 | 0.0 | 0.0 | 0.00 | 0.00 | 0.00 | 79 | 1015.1 |
| 20260507082538 | 15 | 108 | 0.0 | 0.0 | 0.00 | 0.00 | 0.00 | 79 | 1015.1 |
| 20260507082035 | 15 | 108 | 0.0 | 1.6 | 0.00 | 0.00 | 0.00 | 78 | 1015.1 |
| 20260507081531 | 15 | 108 | 1.6 | 1.6 | 0.00 | 0.00 | 0.00 | 79 | 1014.7 |
| 20260507081028 | 15 | 109 | 0.0 | 0.0 | 0.00 | 0.00 | 0.00 | 79 | 1015.1 |
| 20260507080524 | 15 | 106 | 1.6 | 1.6 | 0.00 | 0.00 | 0.00 | 79 | 1015.1 |
| 20260507080021 | 15 | 111 | 0.0 | 0.0 | 0.00 | 0.00 | 0.00 | 79 | 1015.1 |
| 20260507075516 | 15 | 82 | 0.0 | 0.0 | 0.00 | 0.00 | 0.00 | 79 | 1015.1 |
| 20260507075013 | 15 | 81 | 1.6 | 3.2 | 0.00 | 0.00 | 0.00 | 78 | 1015.1 |
| 20260507074509 | 15 | 134 | 0.0 | 0.0 | 0.00 | 0.00 | 0.00 | 79 | 1014.7 |
| 20260507074008 | 15 | 132 | 0.0 | 1.6 | 0.00 | 0.00 | 0.00 | 78 | 1015.1 |
| 20260507073504 | 16 | 126 | 0.0 | 0.0 | 0.00 | 0.00 | 0.00 | 78 | 1015.1 |
| 20260507073000 | 16 | 90 | 1.6 | 1.6 | 0.00 | 0.00 | 0.00 | 77 | 1015.1 |
| 20260507072458 | 16 | 101 | 1.6 | 3.2 | 0.00 | 0.00 | 0.00 | 77 | 1015.1 |
| 20260507071955 | 16 | 142 | 0.0 | 0.0 | 0.00 | 0.00 | 0.00 | 77 | 1015.1 |
| 20260507071452 | 16 | 142 | 1.6 | 1.6 | 0.00 | 0.00 | 0.00 | 77 | 1015.1 |
| 20260507070948 | 16 | 142 | 0.0 | 0.0 | 0.00 | 0.00 | 0.00 | 77 | 1015.1 |
| 20260507070446 | 16 | 142 | 0.0 | 0.0 | 0.00 | 0.00 | 0.00 | 77 | 1015.1 |
| 20260507065942 | 16 | 142 | 0.0 | 1.6 | 0.00 | 0.00 | 0.00 | 77 | 1015.1 |
| 20260507065438 | 16 | 143 | 0.0 | 1.6 | 0.00 | 0.00 | 0.00 | 77 | 1015.1 |
| 20260507064931 | 16 | 142 | 0.0 | 1.6 | 0.00 | 0.00 | 0.00 | 77 | 1015.1 |
| 20260507064429 | 16 | 143 | 0.0 | 1.6 | 0.00 | 0.00 | 0.00 | 76 | 1015.1 |
| 20260507063926 | 16 | 143 | 0.0 | 0.0 | 0.00 | 0.00 | 0.00 | 76 | 1015.1 |
| 20260507063423 | 16 | 143 | 0.0 | 1.6 | 0.00 | 0.00 | 0.00 | 76 | 1015.1 |
| 20260507062920 | 16 | 143 | 0.0 | 0.0 | 0.00 | 0.00 | 0.00 | 76 | 1015.4 |
| 20260507062417 | 16 | 142 | 0.0 | 0.0 | 0.00 | 0.00 | 0.00 | 75 | 1015.4 |
| 20260507061914 | 16 | 143 | 0.0 | 0.0 | 0.00 | 0.00 | 0.00 | 75 | 1015.1 |
| 20260507061413 | 16 | 143 | 0.0 | 0.0 | 0.00 | 0.00 | 0.00 | 75 | 1015.1 |
| 20260507060911 | 16 | 142 | 0.0 | 0.0 | 0.00 | 0.00 | 0.00 | 75 | 1015.4 |
| 20260507060407 | 16 | 143 | 0.0 | 0.0 | 0.00 | 0.00 | 0.00 | 75 | 1015.1 |
| 20260507055904 | 16 | 146 | 1.6 | 1.6 | 0.00 | 0.00 | 0.00 | 74 | 1015.4 |
| 20260507055358 | 16 | 149 | 0.0 | 0.0 | 0.00 | 0.00 | 0.00 | 74 | 1015.4 |
| 20260507054850 | 16 | 149 | 0.0 | 1.6 | 0.00 | 0.00 | 0.00 | 74 | 1015.1 |
| 20260507054346 | 17 | 200 | 0.0 | 0.0 | 0.00 | 0.00 | 0.00 | 73 | 1015.1 |
| 20260507053844 | 17 | 171 | 0.0 | 0.0 | 0.00 | 0.00 | 0.00 | 71 | 1015.4 |
| 20260507053341 | 17 | 171 | 0.0 | 1.6 | 0.00 | 0.00 | 0.00 | 70 | 1015.4 |
| 20260507052840 | 17 | 171 | 0.0 | 0.0 | 0.00 | 0.00 | 0.00 | 70 | 1015.1 |
| 20260507052336 | 17 | 155 | 0.0 | 1.6 | 0.00 | 0.00 | 0.00 | 73 | 1015.1 |
| 20260507051834 | 17 | 140 | 0.0 | 1.6 | 0.00 | 0.00 | 0.00 | 73 | 1015.1 |
| 20260507051332 | 17 | 143 | 3.2 | 3.2 | 0.00 | 0.00 | 0.00 | 73 | 1015.1 |
| 20260507050828 | 17 | 166 | 1.6 | 3.2 | 0.00 | 0.00 | 0.00 | 73 | 1015.1 |
| 20260507050324 | 17 | 141 | 0.0 | 1.6 | 0.00 | 0.00 | 0.00 | 72 | 1015.1 |
| 20260507045822 | 17 | 138 | 3.2 | 3.2 | 0.00 | 0.00 | 0.00 | 72 | 1015.1 |
| 20260507045318 | 17 | 137 | 1.6 | 3.2 | 0.00 | 0.00 | 0.00 | 72 | 1015.1 |
| 20260507044815 | 17 | 142 | 1.6 | 3.2 | 0.00 | 0.00 | 0.00 | 72 | 1015.1 |
| 20260507044312 | 17 | 139 | 1.6 | 3.2 | 0.00 | 0.00 | 0.00 | 71 | 1015.1 |
| 20260507043808 | 17 | 168 | 3.2 | 4.8 | 0.00 | 0.00 | 0.00 | 71 | 1015.1 |
| 20260507043305 | 17 | 175 | 3.2 | 4.8 | 0.00 | 0.00 | 0.00 | 71 | 1015.1 |
| 20260507042801 | 17 | 167 | 1.6 | 3.2 | 0.00 | 0.00 | 0.00 | 71 | 1015.1 |
| 20260507042256 | 17 | 173 | 1.6 | 3.2 | 0.00 | 0.00 | 0.00 | 71 | 1015.1 |
| 20260507041754 | 17 | 162 | 1.6 | 3.2 | 0.00 | 0.00 | 0.00 | 71 | 1015.1 |
| 20260507041250 | 17 | 182 | 1.6 | 3.2 | 0.00 | 0.00 | 0.00 | 71 | 1014.7 |
| 20260507040747 | 17 | 176 | 3.2 | 4.8 | 0.00 | 0.00 | 0.00 | 71 | 1015.1 |
| 20260507040243 | 17 | 165 | 0.0 | 1.6 | 0.00 | 0.00 | 0.00 | 71 | 1015.1 |
| 20260507035739 | 17 | 177 | 1.6 | 3.2 | 0.00 | 0.00 | 0.00 | 71 | 1015.1 |
| 20260507035235 | 17 | 170 | 3.2 | 4.8 | 0.00 | 0.00 | 0.00 | 71 | 1014.7 |
| 20260507034733 | 17 | 190 | 3.2 | 8.0 | 0.00 | 0.00 | 0.00 | 70 | 1014.7 |
| 20260507034229 | 17 | 190 | 3.2 | 4.8 | 0.00 | 0.00 | 0.00 | 70 | 1014.7 |
| 20260507033728 | 17 | 182 | 4.8 | 8.0 | 0.00 | 0.00 | 0.00 | 70 | 1014.4 |
| 20260507033225 | 18 | 170 | 3.2 | 4.8 | 0.00 | 0.00 | 0.00 | 69 | 1014.7 |
| 20260507032722 | 18 | 160 | 3.2 | 3.2 | 0.00 | 0.00 | 0.00 | 69 | 1014.4 |
| 20260507032218 | 18 | 194 | 0.0 | 4.8 | 0.00 | 0.00 | 0.00 | 68 | 1014.7 |
| 20260507031715 | 18 | 211 | 4.8 | 8.0 | 0.00 | 0.00 | 0.00 | 68 | 1014.4 |
| 20260507031212 | 18 | 154 | 4.8 | 8.0 | 0.00 | 0.00 | 0.00 | 67 | 1014.4 |
| 20260507030708 | 18 | 171 | 6.4 | 8.0 | 0.00 | 0.00 | 0.00 | 67 | 1014.4 |
| 20260507030206 | 18 | 166 | 4.8 | 8.0 | 0.00 | 0.00 | 0.00 | 66 | 1014.0 |
| 20260507025703 | 18 | 215 | 1.6 | 3.2 | 0.00 | 0.00 | 0.00 | 67 | 1014.4 |
| 20260507025200 | 18 | 205 | 3.2 | 4.8 | 0.00 | 0.00 | 0.00 | 67 | 1014.4 |
| 20260507024658 | 18 | 176 | 6.4 | 8.0 | 0.00 | 0.00 | 0.00 | 67 | 1014.0 |
| 20260507024155 | 18 | 170 | 4.8 | 4.8 | 0.00 | 0.00 | 0.00 | 66 | 1014.4 |
| 20260507023650 | 18 | 193 | 4.8 | 9.7 | 0.00 | 0.00 | 0.00 | 66 | 1014.0 |
| 20260507023148 | 18 | 172 | 4.8 | 8.0 | 0.00 | 0.00 | 0.00 | 65 | 1014.0 |
| 20260507022645 | 19 | 202 | 3.2 | 9.7 | 0.00 | 0.00 | 0.00 | 65 | 1014.0 |
| 20260507022141 | 19 | 226 | 3.2 | 8.0 | 0.00 | 0.00 | 0.00 | 64 | 1013.7 |
| 20260507021637 | 19 | 214 | 1.6 | 8.0 | 0.00 | 0.00 | 0.00 | 63 | 1013.7 |
| 20260507021132 | 20 | 228 | 4.8 | 9.7 | 0.00 | 0.00 | 0.00 | 62 | 1013.7 |
| 20260507020631 | 20 | 250 | 8.0 | 9.7 | 0.00 | 0.00 | 0.00 | 60 | 1013.7 |
| 20260507020127 | 20 | 211 | 1.6 | 8.0 | 0.00 | 0.00 | 0.00 | 58 | 1013.7 |
| 20260507015626 | 20 | 221 | 6.4 | 11.3 | 0.00 | 0.00 | 0.00 | 59 | 1013.7 |
| 20260507015122 | 20 | 215 | 8.0 | 9.7 | 0.00 | 0.00 | 0.00 | 58 | 1013.7 |
| 20260507014619 | 20 | 219 | 3.2 | 8.0 | 0.00 | 0.00 | 0.00 | 57 | 1013.7 |
| 20260507014115 | 20 | 183 | 3.2 | 9.7 | 0.00 | 0.00 | 0.00 | 56 | 1013.7 |